THOR ABLESTAR DEB, 560

Orbit data source: Space-Track

THOR ABLESTAR DEB, 560 is space debris in LEO originally from a launch on Thu, 29 Jun 1961 UTC launched from the Air Force Eastern Test Range (AFETR). Debris objects in space refer to the collection of defunct objects orbiting the Earth. Examples of debris include non-operational satellites, rocket bodies, and fragments generated from explosions, collisions, or faulty payload assembly.

Loading next visibility...
Identifier
560, 1961-015GS
Orbit
LEO
Country
Flag of USUS
Related business
Manufacturer
Unknown
Mission
Spacecraft
Bus & Motor
Unknown
Mass
Unknown
Launch date (UTC)
1961-06-29 (65 years ago)
Launch vehicle
Unknown
Launch site
Air Force Eastern Test Range (AFETR)
Object type
Payload
Rocket body
Debris
Shape & HBR
Unknown shape, 0.1 m
Radar Cross Section
Small (<0.1 m²)

Expand to show TLE details & history
Last TLE update: 1 day ago

TLE from 1 day ago
0 THOR ABLESTAR DEB
1 00560U 61015GS  26125.62853497  .00000991  00000-0  10501-2 0  9992
2 00560  67.1608 350.2640 0307384 337.6677  21.1236 13.59384574148620
Epoch: 2026-05-05T15:05Z
TLE epoch observation values (Epoch: 2026-05-05T15:05:05.421Z)
Latitude
-0.00003°
Longitude
-99.50925°
Altitude
828.293 km
Speed
7.545 km/s
True Right ascension
23h 21m 03s
True Declination
0° 00' 00"
Sunlit
Object was in daylight at epoch
Visualization orbit readout
Latitude
Unknown
Longitude
Unknown
Altitude
Unknown
Speed
Unknown
Apparent Right ascension
Unknown
Apparent Declination
Unknown
Sunlit
N/A
Visualization observer readout
Local Sidereal Time
08:31:00
Azimuth
Unknown
Elevation
Unknown
Doppler factor
Unknown
Orbital elements
Apogee altitude
1,264.213 km
Perigee altitude
808.397 km
Semi-major axis
7,414.442 km
Eccentricity
0.03074
Inclination
67.1608°
RAAN
350.264°
Arg. of periapsis
337.6677°
True anomaly
22.43999°
Mean anomaly
21.1236°
Eccentric anomaly
21.77699°
Mean motion
3.39958 °/min
Orbital period
105.9 mins
BSTAR
0.0010501
Loading maneuver chart data...
Computing Atmospheric mass density...

Documentation

Showing up to 5 results
|